Time,TemperatureF,DewpointF,PressureIn,WindDirection,WindDirectionDegrees,WindSpeedMPH,WindSpeedGustMPH,Humidity,HourlyPrecipIn,Conditions,Clouds,dailyrainin,SoftwareType,DateUTC
2013-03-21 00:07:00,28.0,28.0,29.98,North,350,5.0,6.0,100,-99.99,,,-99.99,,2013-03-21 06:07:00,
2013-03-21 00:17:00,28.0,28.0,29.98,NE,40,0.0,0.0,100,-99.99,,,-99.99,,2013-03-21 06:17:00,
2013-03-21 00:22:00,29.0,28.0,29.98,NE,40,0.0,0.0,99,-99.99,,,-99.99,,2013-03-21 06:22:00,
2013-03-21 00:27:00,29.0,28.0,29.97,NE,40,0.0,0.0,99,-99.99,,,-99.99,,2013-03-21 06:27:00,
2013-03-21 00:37:00,29.0,29.0,29.97,NE,40,0.0,0.0,99,-99.99,,,-99.99,,2013-03-21 06:37:00,
2013-03-21 00:47:00,29.0,29.0,29.97,NE,40,0.0,0.0,99,-99.99,,,-99.99,,2013-03-21 06:47:00,
2013-03-21 00:52:00,29.0,29.0,29.97,NE,40,0.0,0.0,99,-99.99,,,-99.99,,2013-03-21 06:52:00,
2013-03-21 00:57:00,29.0,29.0,29.96,West,280,4.0,0.0,100,-99.99,,,-99.99,,2013-03-21 06:57:00,
2013-03-21 01:07:00,29.0,29.0,29.96,NW,310,0.0,0.0,100,-99.99,,,-99.99,,2013-03-21 07:07:00,
2013-03-21 01:12:00,29.0,29.0,29.96,NW,310,0.0,0.0,100,-99.99,,,-99.99,,2013-03-21 07:12:00,
2013-03-21 01:22:00,28.0,28.0,29.96,NW,310,0.0,0.0,100,-99.99,,,-99.99,,2013-03-21 07:22:00,
2013-03-21 01:27:00,28.0,28.0,29.95,NW,310,0.0,0.0,100,-99.99,,,-99.99,,2013-03-21 07:27:00,
2013-03-21 01:37:00,29.0,29.0,29.95,NW,310,0.0,0.0,100,-99.99,,,-99.99,,2013-03-21 07:37:00,
2013-03-21 01:42:00,29.0,29.0,29.95,West,280,0.0,0.0,100,-99.99,,,-99.99,,2013-03-21 07:42:00,
2013-03-21 01:47:00,28.0,28.0,29.95,West,280,0.0,4.0,100,-99.99,,,-99.99,,2013-03-21 07:47:00,
2013-03-21 01:57:00,28.0,28.0,29.94,West,280,0.0,0.0,100,-99.99,,,-99.99,,2013-03-21 07:57:00,
2013-03-21 02:07:00,28.0,28.0,29.93,West,280,0.0,0.0,100,-99.99,,,-99.99,,2013-03-21 08:07:00,
2013-03-21 02:17:00,28.0,28.0,29.93,WSW,250,3.0,3.0,100,-99.99,,,-99.99,,2013-03-21 08:17:00,
2013-03-21 02:22:00,28.0,28.0,29.93,WSW,250,0.0,3.0,100,-99.99,,,-99.99,,2013-03-21 08:22:00,
2013-03-21 02:32:00,28.0,28.0,29.92,WSW,250,0.0,0.0,100,-99.99,,,-99.99,,2013-03-21 08:32:00,
2013-03-21 02:37:00,28.0,28.0,29.92,WSW,250,0.0,0.0,100,-99.99,,,-99.99,,2013-03-21 08:37:00,
2013-03-21 02:47:00,28.0,28.0,29.91,WSW,250,0.0,0.0,100,-99.99,,,-99.99,,2013-03-21 08:47:00,
2013-03-21 02:57:00,28.0,28.0,29.91,WSW,250,0.0,0.0,100,-99.99,,,-99.99,,2013-03-21 08:57:00,
2013-03-21 03:02:00,28.0,28.0,29.91,WSW,250,0.0,0.0,100,-99.99,,,-99.99,,2013-03-21 09:02:00,
2013-03-21 03:12:00,28.0,28.0,29.90,WSW,250,0.0,0.0,100,-99.99,,,-99.99,,2013-03-21 09:12:00,
2013-03-21 03:17:00,28.0,28.0,29.89,WSW,250,0.0,0.0,100,-99.99,,,-99.99,,2013-03-21 09:17:00,
2013-03-21 03:27:00,28.0,28.0,29.88,WSW,250,0.0,0.0,100,-99.99,,,-99.99,,2013-03-21 09:27:00,
2013-03-21 03:32:00,28.0,28.0,29.88,WSW,250,0.0,0.0,100,-99.99,,,-99.99,,2013-03-21 09:32:00,
2013-03-21 03:37:00,28.0,28.0,29.88,WSW,250,0.0,0.0,100,-99.99,,,-99.99,,2013-03-21 09:37:00,
2013-03-21 03:47:00,28.0,28.0,29.87,WSW,250,0.0,0.0,100,-99.99,,,-99.99,,2013-03-21 09:47:00,
2013-03-21 03:52:00,28.0,28.0,29.87,WSW,250,0.0,0.0,100,-99.99,,,-99.99,,2013-03-21 09:52:00,
2013-03-21 04:02:00,28.0,28.0,29.86,WSW,250,0.0,0.0,100,-99.99,,,-99.99,,2013-03-21 10:02:00,
2013-03-21 04:12:00,28.0,28.0,29.85,East,90,0.0,4.0,100,-99.99,,,-99.99,,2013-03-21 10:12:00,
2013-03-21 04:22:00,28.0,28.0,29.84,East,80,0.0,3.0,100,-99.99,,,-99.99,,2013-03-21 10:22:00,
2013-03-21 04:32:00,28.0,28.0,29.83,ESE,120,0.0,4.0,100,-99.99,,,-99.99,,2013-03-21 10:32:00,
2013-03-21 04:42:00,28.0,28.0,29.82,East,90,4.0,6.0,100,-99.99,,,-99.99,,2013-03-21 10:42:00,
2013-03-21 04:52:00,28.0,28.0,29.82,ESE,110,0.0,8.0,100,-99.99,,,-99.99,,2013-03-21 10:52:00,
2013-03-21 04:57:00,28.0,28.0,29.81,East,90,4.0,6.0,100,-99.99,,,-99.99,,2013-03-21 10:57:00,
2013-03-21 05:07:00,28.0,28.0,29.81,ESE,110,0.0,0.0,100,-99.99,,,-99.99,,2013-03-21 11:07:00,
2013-03-21 05:17:00,28.0,28.0,29.81,ENE,70,0.0,3.0,100,-99.99,,,-99.99,,2013-03-21 11:17:00,
2013-03-21 05:22:00,28.0,28.0,29.81,ENE,70,0.0,4.0,100,-99.99,,,-99.99,,2013-03-21 11:22:00,
2013-03-21 05:27:00,28.0,28.0,29.81,ENE,70,0.0,0.0,100,-99.99,,,-99.99,,2013-03-21 11:27:00,
2013-03-21 05:32:00,28.0,28.0,29.80,ENE,70,0.0,0.0,100,-99.99,,,-99.99,,2013-03-21 11:32:00,
2013-03-21 05:37:00,28.0,28.0,29.80,ENE,70,0.0,0.0,100,-99.99,,,-99.99,,2013-03-21 11:37:00,
2013-03-21 05:47:00,28.0,28.0,29.81,ENE,70,0.0,0.0,100,-99.99,,,-99.99,,2013-03-21 11:47:00,
2013-03-21 05:52:00,28.0,28.0,29.81,ENE,70,0.0,0.0,100,-99.99,,,-99.99,,2013-03-21 11:52:00,
2013-03-21 06:02:00,28.0,28.0,29.80,ENE,70,0.0,0.0,100,-99.99,,,-99.99,,2013-03-21 12:02:00,
2013-03-21 06:07:00,28.0,28.0,29.80,ENE,70,0.0,0.0,100,-99.99,,,-99.99,,2013-03-21 12:07:00,
2013-03-21 06:17:00,28.0,28.0,29.79,ENE,70,0.0,0.0,100,-99.99,,,-99.99,,2013-03-21 12:17:00,
2013-03-21 06:27:00,28.0,28.0,29.79,ENE,70,0.0,0.0,100,-99.99,,,-99.99,,2013-03-21 12:27:00,
2013-03-21 06:37:00,28.0,28.0,29.78,ENE,70,0.0,3.0,100,-99.99,,,-99.99,,2013-03-21 12:37:00,
2013-03-21 06:47:00,28.0,28.0,29.78,ENE,70,0.0,0.0,100,-99.99,,,-99.99,,2013-03-21 12:47:00,
2013-03-21 06:57:00,28.0,28.0,29.78,ENE,70,0.0,2.0,100,-99.99,,,-99.99,,2013-03-21 12:57:00,
2013-03-21 07:02:00,28.0,28.0,29.79,North,0,0.0,3.0,100,-99.99,,,-99.99,,2013-03-21 13:02:00,
2013-03-21 07:12:00,28.0,28.0,29.79,ENE,70,0.0,4.0,100,-99.99,,,-99.99,,2013-03-21 13:12:00,
2013-03-21 07:22:00,28.0,28.0,29.78,ENE,70,0.0,0.0,100,-99.99,,,-99.99,,2013-03-21 13:22:00,
2013-03-21 07:27:00,28.0,28.0,29.79,ENE,70,0.0,0.0,100,-99.99,,,-99.99,,2013-03-21 13:27:00,
2013-03-21 07:37:00,29.0,29.0,29.79,ENE,70,0.0,0.0,100,-99.99,,,-99.99,,2013-03-21 13:37:00,
2013-03-21 07:42:00,28.0,28.0,29.79,ENE,70,0.0,0.0,100,-99.99,,,-99.99,,2013-03-21 13:42:00,
2013-03-21 07:52:00,29.0,29.0,29.79,SSE,160,3.0,4.0,100,-99.99,,,-99.99,,2013-03-21 13:52:00,
2013-03-21 08:02:00,29.0,29.0,29.78,South,170,3.0,7.0,100,-99.99,,,-99.99,,2013-03-21 14:02:00,
2013-03-21 08:12:00,29.0,29.0,29.78,SSE,150,6.0,6.0,100,-99.99,,,-99.99,,2013-03-21 14:12:00,
2013-03-21 08:22:00,29.0,29.0,29.79,ESE,110,0.0,5.0,100,-99.99,,,-99.99,,2013-03-21 14:22:00,
2013-03-21 08:27:00,29.0,29.0,29.78,East,80,0.0,5.0,100,-99.99,,,-99.99,,2013-03-21 14:27:00,
2013-03-21 08:37:00,29.0,29.0,29.78,NNE,30,3.0,0.0,100,-99.99,,,-99.99,,2013-03-21 14:37:00,
2013-03-21 08:42:00,29.0,29.0,29.78,East,100,5.0,5.0,100,-99.99,,,-99.99,,2013-03-21 14:42:00,
2013-03-21 08:52:00,30.0,30.0,29.78,ENE,70,0.0,6.0,100,-99.99,,,-99.99,,2013-03-21 14:52:00,
2013-03-21 09:02:00,31.0,31.0,29.78,ENE,70,0.0,0.0,100,-99.99,,,-99.99,,2013-03-21 15:02:00,
2013-03-21 09:07:00,31.0,31.0,29.78,ENE,70,0.0,0.0,99,-99.99,,,-99.99,,2013-03-21 15:07:00,
2013-03-21 09:12:00,31.0,31.0,29.77,ENE,70,0.0,0.0,99,-99.99,,,-99.99,,2013-03-21 15:12:00,
2013-03-21 09:22:00,31.0,31.0,29.77,SE,140,5.0,9.0,99,-99.99,,,-99.99,,2013-03-21 15:22:00,
2013-03-21 09:32:00,31.0,31.0,29.78,SSE,160,0.0,7.0,99,-99.99,,,-99.99,,2013-03-21 15:32:00,
2013-03-21 09:42:00,31.0,31.0,29.77,South,170,0.0,1.0,98,-99.99,,,-99.99,,2013-03-21 15:42:00,
2013-03-21 09:47:00,31.0,31.0,29.77,South,170,0.0,0.0,99,-99.99,,,-99.99,,2013-03-21 15:47:00,
2013-03-21 09:52:00,31.0,31.0,29.77,South,170,0.0,0.0,99,-99.99,,,-99.99,,2013-03-21 15:52:00,
2013-03-21 10:02:00,31.0,31.0,29.78,SE,130,0.0,4.0,99,-99.99,,,-99.99,,2013-03-21 16:02:00,
2013-03-21 10:07:00,31.0,31.0,29.78,South,180,3.0,4.0,99,-99.99,,,-99.99,,2013-03-21 16:07:00,
2013-03-21 10:17:00,31.0,31.0,29.77,SE,130,0.0,0.0,99,-99.99,,,-99.99,,2013-03-21 16:17:00,
2013-03-21 10:22:00,31.0,31.0,29.77,ESE,120,0.0,5.0,99,-99.99,,,-99.99,,2013-03-21 16:22:00,
2013-03-21 10:27:00,32.0,31.0,29.77,SE,140,0.0,5.0,99,-99.99,,,-99.99,,2013-03-21 16:27:00,
2013-03-21 10:32:00,33.0,32.0,29.77,SE,140,0.0,0.0,99,-99.99,,,-99.99,,2013-03-21 16:32:00,
2013-03-21 10:42:00,34.0,33.0,29.75,South,170,3.0,9.0,96,-99.99,,,-99.99,,2013-03-21 16:42:00,
2013-03-21 10:47:00,34.0,33.0,29.75,SSE,160,4.0,7.0,94,-99.99,,,-99.99,,2013-03-21 16:47:00,
2013-03-21 10:57:00,35.0,33.0,29.75,East,100,0.0,6.0,91,-99.99,,,-99.99,,2013-03-21 16:57:00,
2013-03-21 11:02:00,35.0,33.0,29.75,SSE,160,0.0,4.0,92,-99.99,,,-99.99,,2013-03-21 17:02:00,
2013-03-21 11:07:00,35.0,33.0,29.75,South,170,9.0,9.0,92,-99.99,,,-99.99,,2013-03-21 17:07:00,
2013-03-21 11:12:00,36.0,33.0,29.75,South,180,7.0,10.0,91,-99.99,,,-99.99,,2013-03-21 17:12:00,
2013-03-21 11:22:00,35.0,33.0,29.74,East,100,0.0,9.0,91,-99.99,,,-99.99,,2013-03-21 17:22:00,
2013-03-21 11:32:00,34.0,32.0,29.75,South,180,10.0,13.0,93,-99.99,,,-99.99,,2013-03-21 17:32:00,
2013-03-21 11:37:00,34.0,32.0,29.74,SE,140,6.0,12.0,94,-99.99,,,-99.99,,2013-03-21 17:37:00,
2013-03-21 11:42:00,34.0,32.0,29.74,SSE,160,8.0,9.0,94,-99.99,,,-99.99,,2013-03-21 17:42:00,
2013-03-21 11:52:00,34.0,33.0,29.74,South,170,7.0,8.0,94,-99.99,,,-99.99,,2013-03-21 17:52:00,
2013-03-21 12:02:00,37.0,34.0,29.73,NE,50,8.0,8.0,89,-99.99,,,-99.99,,2013-03-21 18:02:00,
2013-03-21 12:07:00,35.0,33.0,29.74,ENE,60,7.0,11.0,91,-99.99,,,-99.99,,2013-03-21 18:07:00,
2013-03-21 12:12:00,34.0,32.0,29.74,WNW,290,9.0,24.0,91,-99.99,,,-99.99,,2013-03-21 18:12:00,
2013-03-21 12:17:00,33.0,30.0,29.74,West,270,10.0,26.0,89,-99.99,,,-99.99,,2013-03-21 18:17:00,
2013-03-21 12:27:00,34.0,29.0,29.75,West,280,14.0,16.0,81,-99.99,,,-99.99,,2013-03-21 18:27:00,
2013-03-21 12:37:00,32.0,29.0,29.79,WNW,290,13.0,27.0,91,-99.99,,,-99.99,,2013-03-21 18:37:00,
2013-03-21 12:47:00,31.0,29.0,29.76,North,10,8.0,23.0,93,-99.99,,,-99.99,,2013-03-21 18:47:00,
2013-03-21 12:57:00,33.0,30.0,29.75,NNW,340,15.0,15.0,89,-99.99,,,-99.99,,2013-03-21 18:57:00,
2013-03-21 13:02:00,34.0,31.0,29.75,North,0,5.0,15.0,86,-99.99,,,-99.99,,2013-03-21 19:02:00,
2013-03-21 13:07:00,36.0,30.0,29.75,WSW,250,6.0,10.0,80,-99.99,,,-99.99,,2013-03-21 19:07:00,
2013-03-21 13:12:00,36.0,29.0,29.75,West,280,10.0,16.0,75,-99.99,,,-99.99,,2013-03-21 19:12:00,
2013-03-21 13:22:00,36.0,29.0,29.74,NW,310,14.0,19.0,74,-99.99,,,-99.99,,2013-03-21 19:22:00,
2013-03-21 13:32:00,37.0,29.0,29.75,North,350,15.0,19.0,75,-99.99,,,-99.99,,2013-03-21 19:32:00,
2013-03-21 13:37:00,36.0,29.0,29.75,NW,310,18.0,25.0,76,-99.99,,,-99.99,,2013-03-21 19:37:00,
2013-03-21 13:42:00,36.0,30.0,29.76,NNE,20,7.0,20.0,77,-99.99,,,-99.99,,2013-03-21 19:42:00,
2013-03-21 13:52:00,34.0,30.0,29.77,NNE,20,9.0,21.0,84,-99.99,,,-99.99,,2013-03-21 19:52:00,
2013-03-21 14:02:00,33.0,29.0,29.78,WNW,290,5.0,13.0,85,-99.99,,,-99.99,,2013-03-21 20:02:00,
2013-03-21 14:07:00,33.0,29.0,29.79,WNW,300,7.0,9.0,86,-99.99,,,-99.99,,2013-03-21 20:07:00,
2013-03-21 14:17:00,32.0,29.0,29.79,NW,310,10.0,14.0,91,-99.99,,,-99.99,,2013-03-21 20:17:00,
2013-03-21 14:22:00,31.0,29.0,29.79,North,0,15.0,15.0,93,-99.99,,,-99.99,,2013-03-21 20:22:00,
2013-03-21 14:27:00,31.0,29.0,29.79,North,0,16.0,16.0,93,-99.99,,,-99.99,,2013-03-21 20:27:00,
2013-03-21 14:37:00,31.0,29.0,29.80,North,0,19.0,23.0,94,-99.99,,,-99.99,,2013-03-21 20:37:00,
2013-03-21 14:42:00,30.0,30.0,29.80,NW,310,11.0,23.0,97,-99.99,,,-99.99,,2013-03-21 20:42:00,
2013-03-21 14:57:00,30.0,29.0,29.78,NNW,330,9.0,18.0,94,-99.99,,,-99.99,,2013-03-21 20:57:00,
2013-03-21 15:02:00,31.0,29.0,29.78,NNW,330,10.0,12.0,92,-99.99,,,-99.99,,2013-03-21 21:02:00,
2013-03-21 15:07:00,32.0,28.0,29.79,WNW,300,12.0,12.0,88,-99.99,,,-99.99,,2013-03-21 21:07:00,
2013-03-21 15:17:00,30.0,28.0,29.80,NNE,20,6.0,16.0,90,-99.99,,,-99.99,,2013-03-21 21:17:00,
2013-03-21 15:27:00,30.0,28.0,29.80,NNE,20,13.0,14.0,91,-99.99,,,-99.99,,2013-03-21 21:27:00,
2013-03-21 15:32:00,31.0,28.0,29.79,North,350,13.0,14.0,89,-99.99,,,-99.99,,2013-03-21 21:32:00,
2013-03-21 15:37:00,31.0,28.0,29.80,North,10,7.0,13.0,88,-99.99,,,-99.99,,2013-03-21 21:37:00,
2013-03-21 15:42:00,31.0,28.0,29.80,North,0,7.0,10.0,87,-99.99,,,-99.99,,2013-03-21 21:42:00,
2013-03-21 15:47:00,32.0,27.0,29.80,North,0,7.0,12.0,84,-99.99,,,-99.99,,2013-03-21 21:47:00,
2013-03-21 15:52:00,32.0,27.0,29.81,NNE,20,10.0,10.0,81,-99.99,,,-99.99,,2013-03-21 21:52:00,
2013-03-21 16:02:00,32.0,27.0,29.82,NW,320,19.0,19.0,81,-99.99,,,-99.99,,2013-03-21 22:02:00,
2013-03-21 16:07:00,32.0,28.0,29.82,North,0,8.0,17.0,84,-99.99,,,-99.99,,2013-03-21 22:07:00,
2013-03-21 16:17:00,31.0,27.0,29.83,North,0,10.0,17.0,86,-99.99,,,-99.99,,2013-03-21 22:17:00,
2013-03-21 16:27:00,29.0,27.0,29.83,North,0,9.0,13.0,91,-99.99,,,-99.99,,2013-03-21 22:27:00,
2013-03-21 16:32:00,30.0,27.0,29.83,NE,50,0.0,12.0,90,-99.99,,,-99.99,,2013-03-21 22:32:00,
2013-03-21 16:37:00,30.0,26.0,29.83,NNE,20,4.0,6.0,87,-99.99,,,-99.99,,2013-03-21 22:37:00,
2013-03-21 16:42:00,30.0,26.0,29.83,NNW,330,0.0,7.0,85,-99.99,,,-99.99,,2013-03-21 22:42:00,
2013-03-21 16:52:00,31.0,27.0,29.83,NNW,330,0.0,0.0,84,-99.99,,,-99.99,,2013-03-21 22:52:00,
2013-03-21 17:02:00,31.0,26.0,29.83,NNW,330,0.0,0.0,80,-99.99,,,-99.99,,2013-03-21 23:02:00,
2013-03-21 17:12:00,32.0,25.0,29.83,West,280,0.0,5.0,76,-99.99,,,-99.99,,2013-03-21 23:12:00,
2013-03-21 17:17:00,32.0,25.0,29.84,NW,320,6.0,6.0,76,-99.99,,,-99.99,,2013-03-21 23:17:00,
2013-03-21 17:27:00,31.0,26.0,29.85,NW,310,22.0,22.0,81,-99.99,,,-99.99,,2013-03-21 23:27:00,
2013-03-21 17:37:00,29.0,25.0,29.85,NNW,340,17.0,18.0,86,-99.99,,,-99.99,,2013-03-21 23:37:00,
2013-03-21 17:42:00,29.0,25.0,29.85,WNW,300,15.0,19.0,86,-99.99,,,-99.99,,2013-03-21 23:42:00,
2013-03-21 17:47:00,29.0,26.0,29.85,NNE,20,8.0,19.0,88,-99.99,,,-99.99,,2013-03-21 23:47:00,
2013-03-21 17:52:00,28.0,25.0,29.85,NNE,20,9.0,17.0,89,-99.99,,,-99.99,,2013-03-21 23:52:00,
2013-03-21 17:57:00,28.0,25.0,29.85,NNW,340,17.0,17.0,90,-99.99,,,-99.99,,2013-03-21 23:57:00,
2013-03-21 18:07:00,28.0,24.0,29.86,NW,310,11.0,11.0,85,-99.99,,,-99.99,,2013-03-22 00:07:00,
2013-03-21 18:12:00,29.0,24.0,29.86,NNW,340,10.0,10.0,83,-99.99,,,-99.99,,2013-03-22 00:12:00,
2013-03-21 18:17:00,29.0,24.0,29.86,West,260,6.0,14.0,82,-99.99,,,-99.99,,2013-03-22 00:17:00,
2013-03-21 18:22:00,29.0,25.0,29.86,South,190,0.0,11.0,85,-99.99,,,-99.99,,2013-03-22 00:22:00,
2013-03-21 18:32:00,29.0,26.0,29.87,South,190,7.0,7.0,87,-99.99,,,-99.99,,2013-03-22 00:32:00,
2013-03-21 18:42:00,29.0,26.0,29.87,SSE,150,6.0,7.0,88,-99.99,,,-99.99,,2013-03-22 00:42:00,
2013-03-21 18:47:00,29.0,26.0,29.87,SE,140,5.0,7.0,88,-99.99,,,-99.99,,2013-03-22 00:47:00,
2013-03-21 18:57:00,29.0,26.0,29.87,ESE,120,0.0,5.0,87,-99.99,,,-99.99,,2013-03-22 00:57:00,
2013-03-21 19:07:00,29.0,25.0,29.88,SSE,160,5.0,5.0,87,-99.99,,,-99.99,,2013-03-22 01:07:00,
2013-03-21 19:22:00,28.0,25.0,29.88,ESE,110,0.0,0.0,87,-99.99,,,-99.99,,2013-03-22 01:22:00,
2013-03-21 19:27:00,28.0,25.0,29.88,ESE,110,0.0,0.0,87,-99.99,,,-99.99,,2013-03-22 01:27:00,
2013-03-21 19:37:00,28.0,25.0,29.88,ENE,70,0.0,0.0,88,-99.99,,,-99.99,,2013-03-22 01:37:00,
2013-03-21 19:42:00,28.0,25.0,29.89,ENE,70,0.0,0.0,88,-99.99,,,-99.99,,2013-03-22 01:42:00,
2013-03-21 19:52:00,27.0,23.0,29.88,ENE,70,0.0,0.0,85,-99.99,,,-99.99,,2013-03-22 01:52:00,
2013-03-21 20:02:00,26.0,22.0,29.88,ENE,70,0.0,0.0,85,-99.99,,,-99.99,,2013-03-22 02:02:00,
2013-03-21 20:12:00,25.0,21.0,29.88,WSW,250,0.0,4.0,85,-99.99,,,-99.99,,2013-03-22 02:12:00,
2013-03-21 20:22:00,24.0,21.0,29.88,WSW,250,0.0,0.0,87,-99.99,,,-99.99,,2013-03-22 02:22:00,
2013-03-21 20:27:00,24.0,20.0,29.88,WNW,300,0.0,5.0,87,-99.99,,,-99.99,,2013-03-22 02:27:00,
2013-03-21 20:32:00,23.0,20.0,29.89,East,100,4.0,0.0,88,-99.99,,,-99.99,,2013-03-22 02:32:00,
2013-03-21 20:37:00,23.0,20.0,29.89,East,80,7.0,7.0,89,-99.99,,,-99.99,,2013-03-22 02:37:00,
2013-03-21 20:47:00,22.0,19.0,29.89,WNW,300,0.0,6.0,89,-99.99,,,-99.99,,2013-03-22 02:47:00,
2013-03-21 20:52:00,22.0,19.0,29.90,SE,130,3.0,5.0,90,-99.99,,,-99.99,,2013-03-22 02:52:00,
2013-03-21 20:57:00,22.0,19.0,29.90,WSW,240,5.0,6.0,90,-99.99,,,-99.99,,2013-03-22 02:57:00,
2013-03-21 21:02:00,22.0,19.0,29.90,SSW,210,0.0,5.0,90,-99.99,,,-99.99,,2013-03-22 03:02:00,
2013-03-21 21:12:00,21.0,18.0,29.91,NW,310,7.0,7.0,88,-99.99,,,-99.99,,2013-03-22 03:12:00,
2013-03-21 21:22:00,20.0,17.0,29.91,NW,310,6.0,8.0,88,-99.99,,,-99.99,,2013-03-22 03:22:00,
2013-03-21 21:27:00,19.0,16.0,29.91,NW,310,4.0,9.0,89,-99.99,,,-99.99,,2013-03-22 03:27:00,
2013-03-21 21:37:00,18.0,15.0,29.91,NNE,20,4.0,5.0,88,-99.99,,,-99.99,,2013-03-22 03:37:00,
2013-03-21 21:42:00,18.0,15.0,29.90,NW,320,4.0,5.0,89,-99.99,,,-99.99,,2013-03-22 03:42:00,
2013-03-21 21:47:00,18.0,15.0,29.91,North,0,3.0,8.0,90,-99.99,,,-99.99,,2013-03-22 03:47:00,
2013-03-21 21:57:00,17.0,15.0,29.91,NNW,330,5.0,6.0,90,-99.99,,,-99.99,,2013-03-22 03:57:00,
2013-03-21 22:02:00,17.0,15.0,29.91,North,0,0.0,7.0,90,-99.99,,,-99.99,,2013-03-22 04:02:00,
2013-03-21 22:07:00,17.0,15.0,29.92,North,0,0.0,0.0,90,-99.99,,,-99.99,,2013-03-22 04:07:00,
2013-03-21 22:12:00,17.0,14.0,29.92,NNE,30,4.0,0.0,89,-99.99,,,-99.99,,2013-03-22 04:12:00,
2013-03-21 22:22:00,16.0,14.0,29.92,NW,310,7.0,7.0,89,-99.99,,,-99.99,,2013-03-22 04:22:00,
2013-03-21 22:27:00,16.0,13.0,29.93,NNW,340,7.0,9.0,90,-99.99,,,-99.99,,2013-03-22 04:27:00,
2013-03-21 22:37:00,15.0,13.0,29.93,NNW,340,9.0,10.0,90,-99.99,,,-99.99,,2013-03-22 04:37:00,
2013-03-21 22:47:00,15.0,12.0,29.92,NNW,340,8.0,9.0,90,-99.99,,,-99.99,,2013-03-22 04:47:00,
2013-03-21 22:57:00,14.0,12.0,29.91,North,350,9.0,9.0,89,-99.99,,,-99.99,,2013-03-22 04:57:00,
2013-03-21 23:02:00,14.0,11.0,29.92,North,0,8.0,11.0,90,-99.99,,,-99.99,,2013-03-22 05:02:00,
2013-03-21 23:07:00,13.0,11.0,29.91,North,350,6.0,11.0,90,-99.99,,,-99.99,,2013-03-22 05:07:00,
2013-03-21 23:12:00,13.0,10.0,29.92,NW,320,9.0,9.0,90,-99.99,,,-99.99,,2013-03-22 05:12:00,
2013-03-21 23:22:00,13.0,11.0,29.93,North,10,6.0,10.0,92,-99.99,,,-99.99,,2013-03-22 05:22:00,
2013-03-21 23:27:00,13.0,10.0,29.93,NNE,20,0.0,8.0,91,-99.99,,,-99.99,,2013-03-22 05:27:00,
2013-03-21 23:37:00,12.0,10.0,29.93,NW,320,6.0,8.0,92,-99.99,,,-99.99,,2013-03-22 05:37:00,
2013-03-21 23:42:00,12.0,10.0,29.93,North,0,0.0,9.0,92,-99.99,,,-99.99,,2013-03-22 05:42:00,
2013-03-21 23:47:00,10.0,7.0,29.93,NNE,20,8.0,8.0,88,-99.99,,,-99.99,,2013-03-22 05:47:00,
2013-03-21 23:52:00,9.0,6.0,29.92,North,0,8.0,9.0,90,-99.99,,,-99.99,,2013-03-22 05:52:00,